datetime,max air temp
1990-10-01,62.78
1990-10-02,54.32
1990-10-03,61.52
1990-10-04,67.28
1990-10-05,47.48
1990-10-06,50.0
1990-10-07,54.14
1990-10-08,60.62
1990-10-09,66.56
1990-10-10,55.4
1990-10-11,59.54
1990-10-12,45.68
1990-10-13,41.0
1990-10-14,55.94
1990-10-15,44.42
1990-10-16,46.58
1990-10-17,58.64
1990-10-18,42.8
1990-10-19,44.78
1990-10-20,49.28
1990-10-21,44.78
1990-10-22,50.18
1990-10-23,57.74
1990-10-24,63.32
1990-10-25,57.74
1990-10-26,59.54
1990-10-27,61.16
1990-10-28,41.72
1990-10-29,49.28
1990-10-30,41.18
1990-10-31,37.04
1990-11-01,35.6
1990-11-02,41.36
1990-11-03,47.66
1990-11-04,43.16
1990-11-05,33.08
1990-11-06,37.04
1990-11-07,39.56
1990-11-08,42.08
1990-11-09,50.0
1990-11-10,59.54
1990-11-11,57.38
1990-11-12,51.62
1990-11-13,45.68
1990-11-14,32.18
1990-11-15,38.3
1990-11-16,45.5
1990-11-17,42.26
1990-11-18,39.74
1990-11-19,
1990-11-20,27.68
1990-11-21,33.08
1990-11-22,36.14
1990-11-23,41.18
1990-11-24,48.38
1990-11-25,39.92
1990-11-26,24.62
1990-11-27,28.94
1990-11-28,31.46
1990-11-29,35.96
1990-11-30,30.74
1990-12-01,26.96
1990-12-02,29.84
1990-12-03,34.52
1990-12-04,32.9
1990-12-05,31.1
1990-12-06,33.26
1990-12-07,38.48
1990-12-08,41.9
1990-12-09,41.54
1990-12-10,34.7
1990-12-11,27.32
1990-12-12,28.94
1990-12-13,22.46
1990-12-14,21.56
1990-12-15,27.86
1990-12-16,28.76
1990-12-17,32.0
1990-12-18,30.02
1990-12-19,14.72
1990-12-20,0.14
1990-12-21,-2.2
1990-12-22,10.94
1990-12-23,19.94
1990-12-24,33.62
1990-12-25,32.54
1990-12-26,33.26
1990-12-27,25.88
1990-12-28,20.84
1990-12-29,10.94
1990-12-30,30.56
1990-12-31,36.14
1991-01-01,41.54
1991-01-02,39.56
1991-01-03,38.84
1991-01-04,44.24
1991-01-05,34.7
1991-01-06,32.36
1991-01-07,31.46
1991-01-08,27.32
1991-01-09,32.0
1991-01-10,34.16
1991-01-11,36.32
1991-01-12,39.38
1991-01-13,37.58
1991-01-14,38.12
1991-01-15,32.9
1991-01-16,35.42
1991-01-17,46.94
1991-01-18,45.32
1991-01-19,38.84
1991-01-20,34.88
1991-01-21,38.12
1991-01-22,48.92
1991-01-23,42.62
1991-01-24,43.16
1991-01-25,39.74
1991-01-26,48.74
1991-01-27,39.92
1991-01-28,41.18
1991-01-29,46.04
1991-01-30,40.82
1991-01-31,42.08
1991-02-01,43.52
1991-02-02,33.98
1991-02-03,34.7
1991-02-04,33.26
1991-02-05,40.82
1991-02-06,41.72
1991-02-07,46.94
1991-02-08,44.42
1991-02-09,48.02
1991-02-10,51.98
1991-02-11,46.94
1991-02-12,36.14
1991-02-13,44.96
1991-02-14,51.62
1991-02-15,49.82
1991-02-16,37.58
1991-02-17,32.72
1991-02-18,39.92
1991-02-19,47.12
1991-02-20,51.62
1991-02-21,48.2
1991-02-22,55.22
1991-02-23,51.62
1991-02-24,54.32
1991-02-25,56.3
1991-02-26,57.38
1991-02-27,56.12
1991-02-28,39.92
1991-03-01,37.94
1991-03-02,32.0
1991-03-03,38.12
1991-03-04,36.14
1991-03-05,26.78
1991-03-06,31.28
1991-03-07,45.86
1991-03-08,45.14
1991-03-09,42.26
1991-03-10,33.62
1991-03-11,29.3
1991-03-12,34.52
1991-03-13,38.48
1991-03-14,29.12
1991-03-15,43.52
1991-03-16,36.32
1991-03-17,50.18
1991-03-18,41.18
1991-03-19,38.48
1991-03-20,39.38
1991-03-21,35.24
1991-03-22,36.86
1991-03-23,32.54
1991-03-24,34.34
1991-03-25,33.44
1991-03-26,47.48
1991-03-27,49.28
1991-03-28,45.5
1991-03-29,57.56
1991-03-30,60.26
1991-03-31,53.42
1991-04-01,49.28
1991-04-02,43.16
1991-04-03,40.82
1991-04-04,53.42
1991-04-05,39.2
1991-04-06,39.2
1991-04-07,38.84
1991-04-08,43.16
1991-04-09,35.6
1991-04-10,34.16
1991-04-11,47.48
1991-04-12,57.92
1991-04-13,54.5
1991-04-14,42.98
1991-04-15,41.72
1991-04-16,36.68
1991-04-17,51.98
1991-04-18,49.46
1991-04-19,54.5
1991-04-20,43.88
1991-04-21,51.62
1991-04-22,55.04
1991-04-23,51.44
1991-04-24,33.08
1991-04-25,35.78
1991-04-26,35.24
1991-04-27,45.5
1991-04-28,43.16
1991-04-29,60.44
1991-04-30,55.76
1991-05-01,57.56
1991-05-02,54.5
1991-05-03,57.02
1991-05-04,59.9
1991-05-05,56.84
1991-05-06,50.72
1991-05-07,51.98
1991-05-08,37.58
1991-05-09,40.82
1991-05-10,44.06
1991-05-11,48.92
1991-05-12,56.3
1991-05-13,43.34
1991-05-14,53.06
1991-05-15,63.86
1991-05-16,50.9
1991-05-17,31.64
1991-05-18,41.9
1991-05-19,46.4
1991-05-20,60.08
1991-05-21,63.14
1991-05-22,65.48
1991-05-23,61.88
1991-05-24,57.02
1991-05-25,52.88
1991-05-26,55.4
1991-05-27,57.74
1991-05-28,51.44
1991-05-29,38.66
1991-05-30,42.8
1991-05-31,64.22
1991-06-01,70.34
1991-06-02,66.56
1991-06-03,58.46
1991-06-04,56.84
1991-06-05,55.58
1991-06-06,59.0
1991-06-07,63.68
1991-06-08,66.02
1991-06-09,78.62
1991-06-10,76.46
1991-06-11,63.32
1991-06-12,53.24
1991-06-13,50.9
1991-06-14,60.62
1991-06-15,61.16
1991-06-16,55.76
1991-06-17,66.92
1991-06-18,67.1
1991-06-19,42.26
1991-06-20,54.68
1991-06-21,60.44
1991-06-22,62.24
1991-06-23,58.64
1991-06-24,58.1
1991-06-25,56.66
1991-06-26,60.62
1991-06-27,54.32
1991-06-28,56.3
1991-06-29,56.48
1991-06-30,65.84
1991-07-01,82.4
1991-07-02,88.7
1991-07-03,89.42
1991-07-04,86.9
1991-07-05,83.66
1991-07-06,80.24
1991-07-07,81.86
1991-07-08,77.9
1991-07-09,68.54
1991-07-10,73.04
1991-07-11,78.08
1991-07-12,82.94
1991-07-13,72.14
1991-07-14,70.34
1991-07-15,67.46
1991-07-16,55.4
1991-07-17,65.3
1991-07-18,75.2
1991-07-19,75.56
1991-07-20,75.2
1991-07-21,76.46
1991-07-22,87.62
1991-07-23,82.04
1991-07-24,74.84
1991-07-25,71.96
1991-07-26,77.72
1991-07-27,83.48
1991-07-28,84.2
1991-07-29,80.78
1991-07-30,82.76
1991-07-31,80.06
1991-08-01,78.44
1991-08-02,81.68
1991-08-03,86.18
1991-08-04,73.58
1991-08-05,73.94
1991-08-06,71.78
1991-08-07,70.52
1991-08-08,79.34
1991-08-09,64.4
1991-08-10,75.02
1991-08-11,76.28
1991-08-12,77.54
1991-08-13,76.1
1991-08-14,82.76
1991-08-15,78.26
1991-08-16,79.7
1991-08-17,83.3
1991-08-18,81.14
1991-08-19,85.64
1991-08-20,84.2
1991-08-21,83.12
1991-08-22,79.7
1991-08-23,75.74
1991-08-24,72.86
1991-08-25,69.44
1991-08-26,73.76
1991-08-27,60.26
1991-08-28,56.66
1991-08-29,72.14
1991-08-30,75.56
1991-08-31,68.36
1991-09-01,68.54
1991-09-02,80.96
1991-09-03,85.64
1991-09-04,87.08
1991-09-05,84.02
1991-09-06,77.0
1991-09-07,65.84
1991-09-08,65.12
1991-09-09,67.1
1991-09-10,68.18
1991-09-11,73.94
1991-09-12,75.38
1991-09-13,67.64
1991-09-14,73.22
1991-09-15,79.88
1991-09-16,84.74
1991-09-17,88.52
1991-09-18,86.9
1991-09-19,86.72
1991-09-20,71.96
1991-09-21,69.98
1991-09-22,76.46
1991-09-23,75.38
1991-09-24,82.4
1991-09-25,86.36
1991-09-26,74.66
1991-09-27,77.0
1991-09-28,73.04
1991-09-29,77.36
1991-09-30,78.44
1991-10-01,75.92
1991-10-02,74.12
1991-10-03,79.7
1991-10-04,76.64
1991-10-05,77.0
1991-10-06,73.58
1991-10-07,68.18
1991-10-08,73.04
1991-10-09,77.9
1991-10-10,80.06
1991-10-11,79.88
1991-10-12,74.12
1991-10-13,74.48
1991-10-14,80.06
1991-10-15,76.46
1991-10-16,54.68
1991-10-17,60.08
1991-10-18,64.4
1991-10-19,67.46
1991-10-20,70.16
1991-10-21,56.84
1991-10-22,37.58
1991-10-23,36.32
1991-10-24,34.34
1991-10-25,35.42
1991-10-26,33.98
1991-10-27,32.0
1991-10-28,35.6
1991-10-29,37.04
1991-10-30,35.24
1991-10-31,50.9
1991-11-01,52.7
1991-11-02,44.78
1991-11-03,53.6
1991-11-04,51.08
1991-11-05,46.94
1991-11-06,49.28
1991-11-07,55.94
1991-11-08,50.0
1991-11-09,44.42
1991-11-10,52.16
1991-11-11,56.12
1991-11-12,47.3
1991-11-13,37.58
1991-11-14,32.9
1991-11-15,35.78
1991-11-16,33.44
1991-11-17,32.54
1991-11-18,31.46
1991-11-19,33.62
1991-11-20,33.44
1991-11-21,32.36
1991-11-22,31.28
1991-11-23,37.58
1991-11-24,40.82
1991-11-25,39.02
1991-11-26,38.84
1991-11-27,28.4
1991-11-28,33.08
1991-11-29,28.22
1991-11-30,32.9
1991-12-01,35.42
1991-12-02,34.88
1991-12-03,37.94
1991-12-04,42.62
1991-12-05,46.04
1991-12-06,40.28
1991-12-07,29.84
1991-12-08,31.64
1991-12-09,34.88
1991-12-10,32.0
1991-12-11,31.64
1991-12-12,33.26
1991-12-13,32.0
1991-12-14,35.24
1991-12-15,39.56
1991-12-16,41.18
1991-12-17,33.98
1991-12-18,31.82
1991-12-19,26.6
1991-12-20,27.14
1991-12-21,37.04
1991-12-22,34.52
1991-12-23,36.14
1991-12-24,36.32
1991-12-25,35.24
1991-12-26,34.34
1991-12-27,38.3
1991-12-28,32.72
1991-12-29,31.46
1991-12-30,32.0
1991-12-31,29.48
1992-01-01,30.2
1992-01-02,35.24
1992-01-03,29.3
1992-01-04,30.38
1992-01-05,34.88
1992-01-06,31.64
1992-01-07,32.54
1992-01-08,35.24
1992-01-09,36.14
1992-01-10,34.7
1992-01-11,32.0
1992-01-12,29.84
1992-01-13,37.04
1992-01-14,41.36
1992-01-15,39.92
1992-01-16,36.32
1992-01-17,32.36
1992-01-18,36.32
1992-01-19,38.48
1992-01-20,39.38
1992-01-21,40.28
1992-01-22,43.7
1992-01-23,39.92
1992-01-24,39.92
1992-01-25,37.4
1992-01-26,37.04
1992-01-27,37.4
1992-01-28,41.36
1992-01-29,42.98
1992-01-30,45.5
1992-01-31,47.3
1992-02-01,33.8
1992-02-02,37.04
1992-02-03,44.06
1992-02-04,45.86
1992-02-05,46.94
1992-02-06,40.28
1992-02-07,44.6
1992-02-08,43.52
1992-02-09,37.4
1992-02-10,40.28
1992-02-11,41.54
1992-02-12,38.48
1992-02-13,39.92
1992-02-14,31.46
1992-02-15,35.24
1992-02-16,32.0
1992-02-17,33.08
1992-02-18,40.82
1992-02-19,37.58
1992-02-20,35.24
1992-02-21,39.92
1992-02-22,37.94
1992-02-23,47.84
1992-02-24,56.48
1992-02-25,58.64
1992-02-26,59.0
1992-02-27,57.38
1992-02-28,52.88
1992-02-29,41.72
1992-03-01,46.04
1992-03-02,46.58
1992-03-03,46.04
1992-03-04,39.38
1992-03-05,42.8
1992-03-06,39.2
1992-03-07,46.58
1992-03-08,49.64
1992-03-09,53.96
1992-03-10,56.66
1992-03-11,57.2
1992-03-12,61.34
1992-03-13,54.68
1992-03-14,46.76
1992-03-15,35.78
1992-03-16,40.46
1992-03-17,41.0
1992-03-18,48.56
1992-03-19,55.22
1992-03-20,56.66
1992-03-21,58.46
1992-03-22,57.74
1992-03-23,50.9
1992-03-24,52.88
1992-03-25,58.1
1992-03-26,50.0
1992-03-27,52.7
1992-03-28,55.58
1992-03-29,53.24
1992-03-30,51.08
1992-03-31,62.06
1992-04-01,67.82
1992-04-02,67.28
1992-04-03,51.98
1992-04-04,38.12
1992-04-05,36.68
1992-04-06,44.96
1992-04-07,50.9
1992-04-08,42.26
1992-04-09,39.38
1992-04-10,51.08
1992-04-11,46.04
1992-04-12,48.38
1992-04-13,46.22
1992-04-14,55.58
1992-04-15,49.64
1992-04-16,46.22
1992-04-17,40.82
1992-04-18,51.62
1992-04-19,63.5
1992-04-20,53.78
1992-04-21,42.98
1992-04-22,40.82
1992-04-23,55.58
1992-04-24,60.26
1992-04-25,69.62
1992-04-26,63.86
1992-04-27,62.96
1992-04-28,66.56
1992-04-29,55.58
1992-04-30,44.42
1992-05-01,62.06
1992-05-02,71.96
1992-05-03,74.12
1992-05-04,78.8
1992-05-05,82.58
1992-05-06,82.4
1992-05-07,74.48
1992-05-08,60.8
1992-05-09,60.26
1992-05-10,58.64
1992-05-11,55.22
1992-05-12,63.32
1992-05-13,67.46
1992-05-14,68.54
1992-05-15,66.38
1992-05-16,69.8
1992-05-17,69.62
1992-05-18,61.52
1992-05-19,55.58
1992-05-20,53.42
1992-05-21,66.56
1992-05-22,72.14
1992-05-23,77.36
1992-05-24,81.86
1992-05-25,70.52
1992-05-26,62.6
1992-05-27,69.8
1992-05-28,67.82
1992-05-29,70.7
1992-05-30,76.46
1992-05-31,82.76
1992-06-01,72.14
1992-06-02,77.9
1992-06-03,78.8
1992-06-04,72.32
1992-06-05,74.3
1992-06-06,73.4
1992-06-07,68.36
1992-06-08,73.58
1992-06-09,68.0
1992-06-10,70.16
1992-06-11,60.98
1992-06-12,42.8
1992-06-13,43.88
1992-06-14,49.1
1992-06-15,48.2
1992-06-16,56.48
1992-06-17,71.06
1992-06-18,75.02
1992-06-19,75.38
1992-06-20,80.42
1992-06-21,89.06
1992-06-22,94.64
1992-06-23,88.16
1992-06-24,77.9
1992-06-25,70.52
1992-06-26,75.38
1992-06-27,76.46
1992-06-28,60.62
1992-06-29,48.2
1992-06-30,53.42
1992-07-01,60.8
1992-07-02,65.12
1992-07-03,68.0
1992-07-04,62.24
1992-07-05,57.38
1992-07-06,62.42
1992-07-07,69.98
1992-07-08,69.08
1992-07-09,73.76
1992-07-10,70.88
1992-07-11,70.34
1992-07-12,73.4
1992-07-13,74.48
1992-07-14,77.18
1992-07-15,81.5
1992-07-16,89.6
1992-07-17,77.18
1992-07-18,82.22
1992-07-19,80.6
1992-07-20,70.52
1992-07-21,71.24
1992-07-22,53.42
1992-07-23,66.02
1992-07-24,77.72
1992-07-25,82.04
1992-07-26,83.84
1992-07-27,84.02
1992-07-28,84.56
1992-07-29,87.8
1992-07-30,91.22
1992-07-31,84.92
1992-08-01,83.66
1992-08-02,82.94
1992-08-03,80.06
1992-08-04,73.58
1992-08-05,79.16
1992-08-06,71.6
1992-08-07,66.2
1992-08-08,69.44
1992-08-09,85.46
1992-08-10,93.2
1992-08-11,94.1
1992-08-12,85.1
1992-08-13,90.5
1992-08-14,89.6
1992-08-15,86.54
1992-08-16,85.1
1992-08-17,89.06
1992-08-18,90.5
1992-08-19,82.04
1992-08-20,79.7
1992-08-21,60.98
1992-08-22,58.82
1992-08-23,69.98
1992-08-24,75.2
1992-08-25,79.16
1992-08-26,82.4
1992-08-27,81.86
1992-08-28,78.08
1992-08-29,77.9
1992-08-30,73.76
1992-08-31,69.62
1992-09-01,75.38
1992-09-02,77.9
1992-09-03,57.02
1992-09-04,55.22
1992-09-05,58.1
1992-09-06,59.0
1992-09-07,68.9
1992-09-08,67.1
1992-09-09,79.7
1992-09-10,73.58
1992-09-11,71.24
1992-09-12,58.46
1992-09-13,63.14
1992-09-14,66.02
1992-09-15,67.46
1992-09-16,74.48
1992-09-17,74.84
1992-09-18,76.82
1992-09-19,69.08
1992-09-20,79.88
1992-09-21,85.82
1992-09-22,80.96
1992-09-23,64.4
1992-09-24,44.96
1992-09-25,59.72
1992-09-26,70.34
1992-09-27,75.02
1992-09-28,78.8
1992-09-29,75.56
1992-09-30,72.68
1992-10-01,66.2
1992-10-02,40.82
1992-10-03,46.76
1992-10-04,61.88
1992-10-05,67.1
1992-10-06,63.68
1992-10-07,67.64
1992-10-08,60.62
1992-10-09,67.64
1992-10-10,73.22
1992-10-11,77.18
1992-10-12,71.96
1992-10-13,58.64
1992-10-14,58.64
1992-10-15,53.42
1992-10-16,57.2
1992-10-17,64.22
1992-10-18,61.88
1992-10-19,62.96
1992-10-20,48.38
1992-10-21,46.94
1992-10-22,56.84
1992-10-23,61.7
1992-10-24,63.68
1992-10-25,65.66
1992-10-26,60.08
1992-10-27,58.46
1992-10-28,44.42
1992-10-29,37.04
1992-10-30,35.6
1992-10-31,39.38
1992-11-01,44.24
1992-11-02,43.16
1992-11-03,45.14
1992-11-04,41.9
1992-11-05,50.9
1992-11-06,56.84
1992-11-07,42.62
1992-11-08,30.92
1992-11-09,31.46
1992-11-10,33.62
1992-11-11,40.82
1992-11-12,47.48
1992-11-13,51.26
1992-11-14,48.74
1992-11-15,48.74
1992-11-16,40.46
1992-11-17,38.12
1992-11-18,33.98
1992-11-19,31.64
1992-11-20,30.56
1992-11-21,36.14
1992-11-22,29.48
1992-11-23,30.38
1992-11-24,26.24
1992-11-25,31.1
1992-11-26,34.88
1992-11-27,33.44
1992-11-28,30.56
1992-11-29,30.56
1992-11-30,34.16
1992-12-01,35.24
1992-12-02,31.64
1992-12-03,24.08
1992-12-04,25.34
1992-12-05,22.46
1992-12-06,31.28
1992-12-07,32.18
1992-12-08,31.82
1992-12-09,33.98
1992-12-10,35.96
1992-12-11,28.58
1992-12-12,27.68
1992-12-13,30.56
1992-12-14,34.7
1992-12-15,25.52
1992-12-16,27.86
1992-12-17,21.02
1992-12-18,22.46
1992-12-19,27.86
1992-12-20,31.28
1992-12-21,28.76
1992-12-22,35.06
1992-12-23,34.16
1992-12-24,34.88
1992-12-25,36.14
1992-12-26,33.62
1992-12-27,31.82
1992-12-28,28.58
1992-12-29,24.44
1992-12-30,23.18
1992-12-31,32.0
1993-01-01,23.18
1993-01-02,22.28
1993-01-03,23.9
1993-01-04,23.54
1993-01-05,25.52
1993-01-06,21.02
1993-01-07,28.22
1993-01-08,27.86
1993-01-09,17.42
1993-01-10,20.48
1993-01-11,22.28
1993-01-12,23.18
1993-01-13,26.42
1993-01-14,30.74
1993-01-15,29.48
1993-01-16,35.06
1993-01-17,29.3
1993-01-18,31.82
1993-01-19,31.64
1993-01-20,32.36
1993-01-21,30.02
1993-01-22,29.84
1993-01-23,27.86
1993-01-24,36.68
1993-01-25,38.48
1993-01-26,41.72
1993-01-27,46.76
1993-01-28,38.12
1993-01-29,39.38
1993-01-30,39.38
1993-01-31,42.98
1993-02-01,39.56
1993-02-02,43.7
1993-02-03,39.38
1993-02-04,45.86
1993-02-05,37.04
1993-02-06,43.52
1993-02-07,40.46
1993-02-08,34.34
1993-02-09,36.86
1993-02-10,34.88
1993-02-11,35.6
1993-02-12,37.94
1993-02-13,39.2
1993-02-14,40.82
1993-02-15,29.12
1993-02-16,21.74
1993-02-17,17.78
1993-02-18,33.08
1993-02-19,33.62
1993-02-20,24.08
1993-02-21,23.0
1993-02-22,31.82
1993-02-23,33.44
1993-02-24,28.94
1993-02-25,35.6
1993-02-26,36.68
1993-02-27,42.98
1993-02-28,46.58
1993-03-01,35.96
1993-03-02,37.04
1993-03-03,38.66
1993-03-04,45.5
1993-03-05,53.6
1993-03-06,60.26
1993-03-07,58.82
1993-03-08,57.74
1993-03-09,42.62
1993-03-10,47.12
1993-03-11,41.72
1993-03-12,49.1
1993-03-13,42.08
1993-03-14,41.54
1993-03-15,37.94
1993-03-16,36.5
1993-03-17,41.0
1993-03-18,41.54
1993-03-19,48.38
1993-03-20,45.5
1993-03-21,54.68
1993-03-22,50.72
1993-03-23,37.58
1993-03-24,38.3
1993-03-25,39.2
1993-03-26,50.0
1993-03-27,46.04
1993-03-28,53.42
1993-03-29,45.32
1993-03-30,46.58
1993-03-31,49.28
1993-04-01,35.96
1993-04-02,35.96
1993-04-03,39.38
1993-04-04,34.7
1993-04-05,41.72
1993-04-06,39.74
1993-04-07,53.6
1993-04-08,39.74
1993-04-09,41.54
1993-04-10,35.78
1993-04-11,42.8
1993-04-12,48.2
1993-04-13,40.28
1993-04-14,51.62
1993-04-15,43.88
1993-04-16,52.34
1993-04-17,33.98
1993-04-18,41.0
1993-04-19,55.4
1993-04-20,53.96
1993-04-21,50.36
1993-04-22,34.88
1993-04-23,37.94
1993-04-24,48.2
1993-04-25,53.06
1993-04-26,43.52
1993-04-27,58.82
1993-04-28,59.9
1993-04-29,55.04
1993-04-30,57.38
1993-05-01,56.66
1993-05-02,61.88
1993-05-03,39.56
1993-05-04,45.86
1993-05-05,60.62
1993-05-06,41.18
1993-05-07,41.18
1993-05-08,51.62
1993-05-09,68.72
1993-05-10,69.44
1993-05-11,68.72
1993-05-12,59.72
1993-05-13,59.72
1993-05-14,62.24
1993-05-15,67.1
1993-05-16,68.0
1993-05-17,71.06
1993-05-18,64.22
1993-05-19,61.52
1993-05-20,54.32
1993-05-21,48.2
1993-05-22,64.58
1993-05-23,72.32
1993-05-24,66.56
1993-05-25,52.88
1993-05-26,59.72
1993-05-27,
1993-05-28,50.36
1993-05-29,58.64
1993-05-30,49.82
1993-05-31,49.1
1993-06-01,48.02
1993-06-02,48.02
1993-06-03,52.34
1993-06-04,53.78
1993-06-05,48.38
1993-06-06,44.24
1993-06-07,46.76
1993-06-08,59.54
1993-06-09,61.34
1993-06-10,55.58
1993-06-11,44.06
1993-06-12,63.32
1993-06-13,73.94
1993-06-14,65.3
1993-06-15,56.66
1993-06-16,69.62
1993-06-17,76.64
1993-06-18,80.24
1993-06-19,78.8
1993-06-20,79.16
1993-06-21,50.72
1993-06-22,49.82
1993-06-23,62.78
1993-06-24,77.54
1993-06-25,83.3
1993-06-26,73.94
1993-06-27,62.24
1993-06-28,60.08
1993-06-29,63.14
1993-06-30,67.46
1993-07-01,68.54
1993-07-02,55.58
1993-07-03,64.22
1993-07-04,68.36
1993-07-05,73.04
1993-07-06,73.4
1993-07-07,71.42
1993-07-08,76.1
1993-07-09,72.5
1993-07-10,73.94
1993-07-11,67.64
1993-07-12,65.12
1993-07-13,58.1
1993-07-14,57.74
1993-07-15,57.38
1993-07-16,59.18
1993-07-17,61.88
1993-07-18,72.86
1993-07-19,61.88
1993-07-20,55.4
1993-07-21,61.7
1993-07-22,54.5
1993-07-23,60.44
1993-07-24,66.38
1993-07-25,62.6
1993-07-26,73.58
1993-07-27,77.18
1993-07-28,71.06
1993-07-29,59.18
1993-07-30,69.62
1993-07-31,81.5
1993-08-01,88.88
1993-08-02,88.16
1993-08-03,84.02
1993-08-04,82.22
1993-08-05,82.58
1993-08-06,79.16
1993-08-07,73.94
1993-08-08,76.1
1993-08-09,75.02
1993-08-10,74.3
1993-08-11,68.36
1993-08-12,69.44
1993-08-13,70.88
1993-08-14,64.22
1993-08-15,44.96
1993-08-16,58.1
1993-08-17,71.24
1993-08-18,75.92
1993-08-19,60.8
1993-08-20,57.02
1993-08-21,69.08
1993-08-22,73.22
1993-08-23,62.42
1993-08-24,58.46
1993-08-25,62.96
1993-08-26,72.32
1993-08-27,77.0
1993-08-28,68.72
1993-08-29,
1993-08-30,74.3
1993-08-31,79.52
1993-09-01,73.58
1993-09-02,78.8
1993-09-03,78.8
1993-09-04,78.8
1993-09-05,79.52
1993-09-06,80.96
1993-09-07,81.86
1993-09-08,84.56
1993-09-09,87.08
1993-09-10,81.14
1993-09-11,71.96
1993-09-12,67.1
1993-09-13,68.18
1993-09-14,60.8
1993-09-15,61.88
1993-09-16,56.3
1993-09-17,59.0
1993-09-18,59.72
1993-09-19,59.36
1993-09-20,55.76
1993-09-21,61.52
1993-09-22,64.4
1993-09-23,
1993-09-24,73.94
1993-09-25,75.02
1993-09-26,77.36
1993-09-27,78.8
1993-09-28,77.36
1993-09-29,83.66
1993-09-30,76.46
1993-10-01,
1993-10-02,
1993-10-03,77.72
1993-10-04,70.16
1993-10-05,62.78
1993-10-06,54.32
1993-10-07,49.28
1993-10-08,
1993-10-09,54.14
1993-10-10,45.86
1993-10-11,
1993-10-12,50.18
1993-10-13,48.74
1993-10-14,44.06
1993-10-15,45.86
1993-10-16,41.0
1993-10-17,47.12
1993-10-18,55.22
1993-10-19,58.28
1993-10-20,54.86
1993-10-21,
1993-10-22,59.9
1993-10-23,58.1
1993-10-24,
1993-10-25,59.36
1993-10-26,57.92
1993-10-27,61.16
1993-10-28,60.98
1993-10-29,55.58
1993-10-30,59.36
1993-10-31,
1993-11-01,46.58
1993-11-02,53.96
1993-11-03,41.72
1993-11-04,47.48
1993-11-05,47.48
1993-11-06,48.56
1993-11-07,
1993-11-08,
1993-11-09,41.9
1993-11-10,44.06
1993-11-11,
1993-11-12,37.04
1993-11-13,38.12
1993-11-14,43.16
1993-11-15,47.66
1993-11-16,42.62
1993-11-17,35.78
1993-11-18,33.8
1993-11-19,
1993-11-20,
1993-11-21,
1993-11-22,27.68
1993-11-23,18.32
1993-11-24,
1993-11-25,27.32
1993-11-26,
1993-11-27,
1993-11-28,34.52
1993-11-29,33.08
1993-11-30,32.0
1993-12-01,38.12
1993-12-02,40.28
1993-12-03,38.12
1993-12-04,30.02
1993-12-05,28.58
1993-12-06,32.18
1993-12-07,32.72
1993-12-08,32.36
1993-12-09,
1993-12-10,42.8
1993-12-11,36.86
1993-12-12,
1993-12-13,30.02
1993-12-14,31.28
1993-12-15,33.08
1993-12-16,23.54
1993-12-17,21.74
1993-12-18,26.42
1993-12-19,29.66
1993-12-20,32.36
1993-12-21,34.52
1993-12-22,38.3
1993-12-23,
1993-12-24,36.14
1993-12-25,
1993-12-26,42.98
1993-12-27,
1993-12-28,33.62
1993-12-29,38.12
1993-12-30,33.26
1993-12-31,32.9
1994-01-01,33.44
1994-01-02,
1994-01-03,35.6
1994-01-04,
1994-01-05,27.86
1994-01-06,31.64
1994-01-07,33.08
1994-01-08,33.8
1994-01-09,33.26
1994-01-10,32.0
1994-01-11,36.14
1994-01-12,36.86
1994-01-13,39.38
1994-01-14,
1994-01-15,44.24
1994-01-16,44.78
1994-01-17,47.12
1994-01-18,53.78
1994-01-19,48.74
1994-01-20,45.32
1994-01-21,42.8
1994-01-22,41.18
1994-01-23,39.2
1994-01-24,32.9
1994-01-25,33.44
1994-01-26,31.28
1994-01-27,32.18
1994-01-28,32.0
1994-01-29,45.5
1994-01-30,35.96
1994-01-31,37.58
1994-02-01,39.92
1994-02-02,41.18
1994-02-03,42.26
1994-02-04,43.16
1994-02-05,38.12
1994-02-06,31.1
1994-02-07,32.9
1994-02-08,33.98
1994-02-09,31.64
1994-02-10,28.58
1994-02-11,33.26
1994-02-12,33.98
1994-02-13,36.14
1994-02-14,42.44
1994-02-15,42.08
1994-02-16,41.0
1994-02-17,
1994-02-18,30.02
1994-02-19,
1994-02-20,29.66
1994-02-21,23.72
1994-02-22,33.44
1994-02-23,30.56
1994-02-24,
1994-02-25,36.86
1994-02-26,37.22
1994-02-27,
1994-02-28,49.28
1994-03-01,56.84
1994-03-02,54.68
1994-03-03,
1994-03-04,48.02
1994-03-05,47.3
1994-03-06,51.08
1994-03-07,
1994-03-08,58.82
1994-03-09,
1994-03-10,
1994-03-11,52.88
1994-03-12,58.28
1994-03-13,66.38
1994-03-14,58.64
1994-03-15,55.58
1994-03-16,34.7
1994-03-17,44.6
1994-03-18,33.98
1994-03-19,40.46
1994-03-20,47.84
1994-03-21,30.56
1994-03-22,26.6
1994-03-23,29.12
1994-03-24,47.3
1994-03-25,53.6
1994-03-26,63.5
1994-03-27,66.02
1994-03-28,64.76
1994-03-29,54.86
1994-03-30,42.26
1994-03-31,43.52
1994-04-01,56.12
1994-04-02,55.22
1994-04-03,46.58
1994-04-04,51.08
1994-04-05,46.04
1994-04-06,34.34
1994-04-07,41.9
1994-04-08,36.68
1994-04-09,39.74
1994-04-10,52.34
1994-04-11,61.34
1994-04-12,47.84
1994-04-13,50.36
1994-04-14,
1994-04-15,70.34
1994-04-16,59.72
1994-04-17,59.54
1994-04-18,67.1
1994-04-19,63.5
1994-04-20,68.18
1994-04-21,50.72
1994-04-22,52.52
1994-04-23,47.84
1994-04-24,42.8
1994-04-25,38.84
1994-04-26,41.36
1994-04-27,46.58
1994-04-28,58.1
1994-04-29,52.88
1994-04-30,50.18
1994-05-01,51.26
1994-05-02,53.24
1994-05-03,46.94
1994-05-04,52.52
1994-05-05,51.8
1994-05-06,67.1
1994-05-07,67.82
1994-05-08,70.7
1994-05-09,71.6
1994-05-10,75.02
1994-05-11,66.92
1994-05-12,59.0
1994-05-13,59.9
1994-05-14,63.68
1994-05-15,40.82
1994-05-16,42.26
1994-05-17,46.94
1994-05-18,53.42
1994-05-19,41.54
1994-05-20,52.88
1994-05-21,47.12
1994-05-22,60.62
1994-05-23,71.78
1994-05-24,77.36
1994-05-25,66.38
1994-05-26,49.1
1994-05-27,59.9
1994-05-28,53.24
1994-05-29,57.38
1994-05-30,75.02
1994-05-31,57.02
1994-06-01,59.72
1994-06-02,67.28
1994-06-03,60.98
1994-06-04,60.62
1994-06-05,49.64
1994-06-06,40.82
1994-06-07,52.52
1994-06-08,63.5
1994-06-09,71.24
1994-06-10,80.96
1994-06-11,72.86
1994-06-12,66.74
1994-06-13,50.72
1994-06-14,50.72
1994-06-15,51.08
1994-06-16,59.18
1994-06-17,53.78
1994-06-18,61.88
1994-06-19,75.92
1994-06-20,76.64
1994-06-21,75.38
1994-06-22,77.18
1994-06-23,63.32
1994-06-24,70.7
1994-06-25,64.76
1994-06-26,71.96
1994-06-27,80.6
1994-06-28,81.32
1994-06-29,78.8
1994-06-30,76.1
1994-07-01,69.98
1994-07-02,68.18
1994-07-03,71.6
1994-07-04,68.9
1994-07-05,59.72
1994-07-06,82.22
1994-07-07,86.54
1994-07-08,87.26
1994-07-09,80.06
1994-07-10,80.78
1994-07-11,81.5
1994-07-12,79.16
1994-07-13,81.14
1994-07-14,77.36
1994-07-15,85.46
1994-07-16,90.86
1994-07-17,84.02
1994-07-18,83.66
1994-07-19,89.06
1994-07-20,92.3
1994-07-21,92.12
1994-07-22,79.88
1994-07-23,84.74
1994-07-24,80.42
1994-07-25,77.72
1994-07-26,83.48
1994-07-27,83.48
1994-07-28,83.12
1994-07-29,81.5
1994-07-30,79.16
1994-07-31,80.06
1994-08-01,81.32
1994-08-02,79.88
1994-08-03,76.64
1994-08-04,77.72
1994-08-05,73.76
1994-08-06,77.54
1994-08-07,71.06
1994-08-08,66.2
1994-08-09,78.98
1994-08-10,80.42
1994-08-11,80.24
1994-08-12,82.58
1994-08-13,84.38
1994-08-14,80.78
1994-08-15,77.54
1994-08-16,73.76
1994-08-17,80.24
1994-08-18,73.58
1994-08-19,71.96
1994-08-20,72.68
1994-08-21,66.02
1994-08-22,73.4
1994-08-23,76.64
1994-08-24,74.12
1994-08-25,78.62
1994-08-26,80.42
1994-08-27,80.6
1994-08-28,71.06
1994-08-29,74.84
1994-08-30,81.14
1994-08-31,74.66
1994-09-01,69.98
1994-09-02,62.78
1994-09-03,57.92
1994-09-04,76.82
1994-09-05,82.04
1994-09-06,78.26